Back to catalog

STARLINK-3210

AliveCommunicationsVLEO
NORAD 49755·PAYLOAD·🇺🇸 United States

Launched Dec 2, 2021 from Cape Canaveral Space Force Station

Loading…

Next Passes (next 24 hours)

TLE

FreshSource: CelesTrak SupGP

Epoch: Sep 14, 2026, 13:09 UTC

1 49755C 21115AH  26257.54840278 -.00023596  00000+0 -69734-3 0  2575
2 49755  53.1600   9.6263 0001505  70.6817  26.3903 15.34393015    11

Track STARLINK-3210 in real time with AllMySat

Download on the App Store